Flight Track Log - Related Links

Times and Time Zones

All times are in EST time to prevent confusion due to time zone crossing. See the FDX562 flight status page for this flight to view local times or setup timezone preferences in your user account.

Time Position Orientation Groundspeed Altitude Reporting Facility
EST Latitude Longitude Course Direction KTS MPH feet Rate Location/Type
05:47PM 35.0167 -89.9667 168° South 198 228 900  Level KMEM
05:48PM 34.9500 -89.9500 168° South 264 304 5,200 3,762 Climbing KMEM
05:49PM 34.9167 -89.8667 116° Southeast 307 353 8,800 2,933 Climbing KMEM
05:51PM 34.9206 -89.7164 88° East 366 421 11,800 2,434 Climbing Memphis Center
05:52PM 34.9147 -89.5594 93° East 441 507 14,600 2,903 Climbing Memphis Center
05:53PM 34.9147 -89.3914 90° East 478 550 17,800 3,145 Climbing Memphis Center
05:54PM 34.9142 -89.2144 90° East 506 582 21,100 2,661 Climbing Memphis Center
05:55PM 34.8822 -89.0331 102° East 540 621 23,300 1,790 Climbing Memphis Center
05:56PM 34.8514 -88.8519 102° East 541 623 24,800 1,839 Climbing Memphis Center
05:57PM 34.8053 -88.6650 107° East 565 650 27,100 2,565 Climbing Memphis Center
05:58PM 34.6961 -88.5194 132° Southeast 570 656 30,100 2,710 Climbing Memphis Center
05:59PM 34.5583 -88.3778 140° Southeast 557 641 32,700 2,274 Climbing Memphis Center
06:00PM 34.4425 -88.2550 139° Southeast 556 640 34,800 1,680 Climbing Memphis Center
06:01PM 34.3286 -88.1344 139° Southeast 552 635 36,200 1,056 Climbing Memphis Center
06:02PM 34.2144 -88.0144 139° Southeast 550 633 37,000 387 Climbing Memphis Center
06:03PM 34.1011 -87.8964 139° Southeast 547 629 37,000  Level Memphis Center
06:04PM 33.9672 -87.7561 139° Southeast 540 621 37,000  Level Memphis Center
06:05PM 33.8553 -87.6381 139° Southeast 540 621 37,000  Level Memphis Center
06:06PM 33.7400 -87.5203 140° Southeast 543 625 37,000  Level Memphis Center
06:07PM 33.6261 -87.4025 139° Southeast 544 626 37,000  Level Memphis Center
06:08PM 33.5119 -87.2836 139° Southeast 545 627 37,000  Level Memphis Center
06:09PM 33.3750 -87.1422 139° Southeast 544 626 37,000  Level Memphis Center
06:10PM 33.2608 -87.0258 140° Southeast 543 625 37,000  Level Memphis Center
06:11PM 33.1533 -86.9144 139° Southeast 538 619 37,000  Level Atlanta Center
06:12PM 33.0389 -86.8042 141° Southeast 538 619 37,000  Level Atlanta Center
06:13PM 32.9289 -86.6869 138° Southeast 538 619 37,000 50 Level Atlanta Center
06:14PM 32.8122 -86.5722 140° Southeast 538 619 37,100 50 Climbing Atlanta Center
06:15PM 32.6978 -86.4553 139° Southeast 538 619 37,100 -50 Level Atlanta Center
06:16PM 32.5831 -86.3411 140° Southeast 538 619 37,000 -50 Descending Atlanta Center
06:17PM 32.4619 -86.2275 142° Southeast 543 625 37,000  Level Atlanta Center
06:18PM 32.3469 -86.1114 140° Southeast 543 625 37,000  Level Atlanta Center
06:19PM 32.2319 -85.9983 140° Southeast 543 625 37,000  Level Atlanta Center
06:20PM 32.1192 -85.8806 138° Southeast 543 625 37,000  Level Atlanta Center
06:22PM 31.9186 -85.6878 141° Southeast 542 624 37,000  Level Jacksonville Center
06:23PM 31.7975 -85.5886 145° Southeast 537 618 37,000  Level Jacksonville Center
06:24PM 31.6744 -85.4900 146° Southeast 537 618 37,000  Level Jacksonville Center
06:25PM 31.5533 -85.3892 145° Southeast 537 618 37,000  Level Jacksonville Center
06:26PM 31.4319 -85.2858 144° Southeast 532 612 37,000  Level Jacksonville Center
06:27PM 31.3169 -85.1858 143° Southeast 526 605 37,000  Level Jacksonville Center
06:33PM 30.6199 -84.6207 143° Southeast 528 608 37,000  Level FlightAware ADS-B (KONZ)
06:35PM 30.2980 -84.3612 145° Southeast 524 603 37,000  Level FlightAware ADS-B (KONZ)
06:36PM 30.1842 -84.2700 145° Southeast 524 603 37,000 -120 Level FlightAware ADS-B (KONZ)
06:37PM 30.0979 -84.2016 146° Southeast 520 598 36,800 -640 Descending FlightAware ADS-B (KONZ)
06:37PM 30.0371 -84.1531 145° Southeast 515 593 36,200 -828 Descending FlightAware ADS-B (KONZ)
06:39PM 29.8878 -84.0353 145° Southeast 519 597 35,200 -497 Descending Jacksonville Center
06:40PM 29.7675 -83.9431 146° Southeast 519 597 35,000 -150 Descending Jacksonville Center
06:41PM 29.6492 -83.8486 145° Southeast 524 603 34,900 -1,000 Descending Jacksonville Center
06:42PM 29.5328 -83.7542 145° Southeast 524 603 33,000 -2,150 Descending Jacksonville Center
06:43PM 29.4125 -83.6603 146° Southeast 524 603 30,600 -2,250 Descending Jacksonville Center
06:44PM 29.3022 -83.5736 146° Southeast 517 595 28,500 -2,050 Descending Jacksonville Center
06:45PM 29.1919 -83.4897 146° Southeast 493 567 26,500 -2,000 Descending Jacksonville Center
06:46PM 29.0797 -83.4225 152° Southeast 469 540 24,500 -1,900 Descending Jacksonville Center
06:47PM 28.9714 -83.3531 151° Southeast 458 527 22,700 -1,850 Descending Jacksonville Center
06:48PM 28.8631 -83.2861 152° Southeast 447 514 20,800 -1,818 Descending Jacksonville Center
06:50PM 28.6000 -83.1167 150° Southeast 431 496 16,700 -1,806 Descending Tampa TRACON
06:51PM 28.4667 -83.0333 151° Southeast 420 483 14,300 -1,905 Descending Tampa TRACON
06:52PM 28.4000 -83.0000 156° South 409 471 12,700 -1,667 Descending Tampa TRACON
06:53PM 28.3000 -82.9333 150° Southeast 370 426 11,300 -1,200 Descending Tampa TRACON
06:54PM 28.2167 -82.8667 145° Southeast 340 391 10,300 -1,100 Descending Tampa TRACON
06:55PM 28.1667 -82.8000 130° Southeast 301 346 9,100 -1,526 Descending Tampa TRACON
06:56PM 28.1167 -82.7333 130° Southeast 297 342 7,400 -1,789 Descending Tampa TRACON
06:57PM 28.0500 -82.6667 139° Southeast 295 339 5,700 -1,150 Descending Tampa TRACON
06:58PM 28.0000 -82.6167 139° Southeast 282 325 5,100 -682 Descending Tampa TRACON
06:59PM 27.9000 -82.6167 180° South 269 310 4,200 -500 Descending Tampa TRACON
07:00PM 27.8500 -82.6000 164° South 228 262 4,000 -750 Descending Tampa TRACON
07:01PM 27.8667 -82.5333 74° East 180 207 2,700 -1,474 Descending Tampa TRACON
07:02PM 27.9000 -82.5500 336° Northwest 157 181 1,200 -1,156 Descending Tampa TRACON
07:03PM 27.9333 -82.5500 360° North 141 162 600 -655 Descending Tampa TRACON

Login

Don't have an account? Register now (free) for customized features, flight alerts, and more!